Vertical_Velocity
-1 -1 -1 -2 -2 -2 -2 -1 -0 1 2 2 3 3 2 1 0 -1 -1 -2 -2 -2 -2 -2 -2 -1 -0 1 2 4 4 5 5 4 4 3 2 1 0 -0 -0 -0 -0 -0 -0 -0 -0 -1 -1 -1 -1 -1 -0 -1 -1 -1 -1 -1 -1 -3 -3 -1 4 7 2 -3 -6 -3 6
-2 -2 -1 -1 -2 -2 -2 -2 -0 1 3 3 4 3 3 2 0 -1 -2 -2 -3 -3 -3 -2 -1 -1 0 1 2 3 4 4 4 3 2 1 0 -0 -1 -1 -0 -0 0 0 -0 -0 -0 -1 -1 -1 -2 -1 -1 -2 -2 -1 -0 -0 -1 -2 -4 -3 -0 6 8 6 2 -2 -1
-3 -3 -2 -2 -3 -4 -4 -3 -2 -0 1 2 2 2 1 1 -0 -1 -2 -3 -3 -4 -4 -3 -3 -2 -1 -1 -0 0 0 0 -0 -1 -1 -2 -2 -2 -2 -2 -1 -1 -0 -0 -0 -0 -0 -0 -1 -1 -1 -1 -1 -1 -1 -1 -1 -1 -1 -2 -2 -3 -3 -1 7 12 14 10 4
-3 -3 -2 -2 -3 -4 -4 -4 -3 -1 -1 0 0 0 1 0 0 -0 -1 -2 -2 -2 -3 -3 -3 -2 -2 -2 -1 -1 -1 -2 -2 -3 -3 -4 -4 -4 -4 -3 -2 -1 -1 -0 -0 0 0 -0 -0 -0 -0 -0 -0 -0 -0 -1 -1 -1 -2 -2 -2 -2 -2 -3 -0 5 11 14 9
-1 -1 -2 -2 -3 -4 -4 -4 -3 -2 -1 0 1 1 2 2 1 1 0 0 -0 -0 -1 -1 -1 -1 -1 -1 -1 -1 -1 -1 -2 -2 -3 -3 -4 -4 -4 -4 -4 -3 -2 -1 -1 -0 0 0 0 1 1 1 1 0 -0 -1 -1 -2 -2 -4 -2 -1 -1 -2 -3 -1 2 7 7
-0 -0 -0 -1 -2 -3 -4 -4 -3 -1 0 2 3 4 4 3 3 2 2 1 1 1 1 1 1 0 0 -0 -0 -1 -1 -1 -1 -1 -2 -2 -2 -3 -3 -4 -4 -4 -4 -4 -3 -2 -2 -1 -1 -0 0 1 1 0 -0 -1 -1 -2 -3 -4 -3 0 4 3 -0 -3 -4 -2 1
1 1 0 -1 -2 -2 -3 -3 -2 -0 1 3 4 5 4 4 3 3 2 2 1 1 1 1 1 1 1 1 1 0 0 -0 -0 -1 -1 -1 -1 -1 -2 -2 -3 -3 -3 -4 -4 -4 -4 -4 -3 -2 -1 -0 -0 0 -0 -1 -1 -1 -2 -3 -4 -3 -1 2 2 2 1 0 1
1 1 0 -0 -0 -1 -1 -1 -0 1 3 4 5 5 4 4 3 3 2 2 2 1 1 1 1 1 1 1 1 1 0 0 0 0 0 0 -0 -1 -1 -2 -2 -2 -2 -2 -2 -3 -4 -4 -4 -4 -3 -2 -1 -1 -0 -1 -1 -1 -1 -2 -2 -3 -2 -1 3 6 8 9 10
1 1 1 1 1 1 1 1 2 3 4 5 5 5 4 3 3 2 2 1 1 1 1 1 1 1 1 1 1 0 0 0 -0 -0 -0 0 0 -0 -1 -2 -2 -2 -2 -2 -1 -2 -2 -3 -4 -4 -3 -3 -2 -2 -2 -2 -2 -2 -1 -1 -2 -2 -2 -1 -1 1 4 6 5
1 1 1 2 2 2 2 3 4 5 5 5 5 4 4 2 2 1 1 0 0 0 1 0 0 1 1 0 0 0 0 -0 -0 -0 -0 -0 0 1 0 -0 -1 -2 -2 -2 -2 -2 -2 -3 -3 -3 -3 -2 -2 -2 -2 -2 -3 -2 -2 -2 -1 -1 -1 -1 -1 -1 -0 -0 0
0 0 1 1 2 2 4 4 5 5 5 5 4 3 2 1 1 0 0 0 0 0 0 0 1 1 1 1 1 1 0 0 0 -0 -0 -0 0 1 1 1 0 -0 -1 -2 -3 -3 -2 -3 -2 -2 -2 -2 -1 0 0 -1 -2 -2 -1 -1 -1 -1 -1 -1 -1 -1 -1 -0 -1
1 1 1 1 2 3 4 5 5 5 5 4 3 2 1 0 -0 -0 -0 0 0 0 0 0 1 1 1 1 1 1 0 0 -0 -0 -0 -0 -0 0 0 1 1 1 0 -1 -2 -3 -3 -3 -3 -2 -2 -2 -0 1 2 1 2 2 1 0 -1 -1 -0 0 0 0 0 0 -1
2 2 2 2 2 3 4 4 4 4 4 3 2 1 0 -0 -1 -1 -0 -0 -0 0 0 1 1 1 1 1 1 1 1 0 -0 -0 -0 -0 -0 -0 -0 -0 0 1 1 1 0 -1 -2 -3 -3 -3 -3 -3 -2 -1 -0 2 4 3 1 -0 -0 0 0 1 2 2 2 2 1
2 2 2 2 3 3 3 3 3 3 2 2 1 0 -0 -1 -1 -1 -1 -0 -1 -0 0 0 1 1 0 0 -0 -0 -0 -0 -0 -0 -0 -0 0 -0 -0 -1 -1 -0 0 1 1 1 1 -0 -1 -2 -2 -3 -3 -2 -1 0 0 0 -0 -0 -0 -0 0 2 3 4 4 3 3
1 1 1 2 2 2 2 2 1 1 1 1 0 0 0 -0 -1 -0 -0 -0 -0 -0 -0 0 0 -0 -0 -0 -1 -1 -1 -1 -1 -0 -0 -0 0 0 0 -0 -0 -1 -1 -1 -1 0 1 2 2 1 -0 -1 -2 -2 -2 -2 -2 -2 -1 -1 -1 -1 -0 1 2 2 1 1 3
0 0 0 1 1 1 1 1 0 0 1 0 0 0 0 0 0 0 0 0 -0 -0 0 0 -0 -1 -0 -0 -1 -2 -2 -2 -1 -1 -1 -1 -0 0 0 0 0 0 -0 -1 -1 -1 -0 1 2 3 3 2 1 0 -1 -1 -2 -1 -1 -1 -0 0 0 0 0 -1 -1 -1 1
0 0 1 1 1 1 0 0 0 0 0 -0 -0 -0 -0 -0 0 0 0 0 -0 -0 0 0 -0 -0 -0 -1 -1 -1 -1 -2 -2 -2 -1 -1 -1 -1 -0 -0 0 1 1 0 -0 -1 -1 -1 1 2 3 3 3 2 1 0 -0 -1 -1 -0 0 0 1 1 1 -0 -1 -1 -1
1 1 1 1 1 1 1 1 1 0 0 -0 -0 -1 -1 -1 -1 -1 -1 -1 -1 -1 -1 -1 -0 -0 -0 -1 -1 -1 -0 -1 -1 -1 -1 -1 -1 -1 -1 -1 -0 -0 0 0 0 0 -0 -0 -0 0 1 2 2 3 3 2 1 0 0 0 0 0 0 0 0 0 0 -0 -0
1 1 1 1 0 0 1 1 1 0 -0 -0 -1 -1 -1 -2 -2 -2 -2 -2 -2 -2 -2 -2 -1 -1 -0 -1 -1 -1 -1 -1 -1 -1 -1 -1 -1 -1 -1 -1 -1 -0 -0 -0 -0 0 1 1 0 0 0 0 1 2 2 2 1 1 1 0 0 0 0 -0 -0 -0 -0 -1 -0
0 -0 -0 -1 -1 -1 -1 -1 -1 -1 -1 -1 -1 -1 -2 -2 -2 -3 -3 -3 -3 -2 -2 -3 -3 -2 -1 -1 -1 -1 -1 -1 -1 -1 -1 -1 -0 -0 -0 -0 -0 0 0 0 -0 -0 0 1 1 1 1 1 1 1 1 1 1 1 1 0 0 0 0 0 -1 -1 -1 -1 -1
-0 -1 -1 -2 -2 -2 -2 -2 -2 -2 -2 -2 -1 -1 -2 -2 -2 -2 -3 -3 -3 -3 -3 -3 -3 -3 -2 -2 -2 -2 -2 -1 -1 -1 -2 -1 -1 -0 -0 0 -0 0 1 1 0 0 -0 -0 0 1 1 1 1 1 1 1 0 0 0 0 0 1 1 1 0 -0 -1 -1 -1
-1 -1 -2 -2 -2 -3 -3 -3 -3 -3 -3 -3 -2 -2 -2 -2 -2 -2 -2 -2 -2 -2 -2 -3 -3 -3 -3 -3 -2 -2 -2 -1 -1 -1 -2 -2 -2 -1 -1 -0 -1 -0 0 1 1 1 0 -0 -1 -0 -0 -0 0 1 2 1 1 0 0 -0 0 1 1 2 1 1 0 -0 -0
-2 -2 -2 -2 -3 -3 -3 -4 -4 -4 -4 -4 -4 -3 -3 -3 -2 -2 -2 -2 -1 -2 -2 -2 -2 -2 -2 -2 -2 -2 -2 -2 -1 -1 -1 -2 -2 -2 -2 -1 -1 -1 -1 0 1 1 0 -0 -1 -1 -2 -2 -2 -1 0 1 1 1 1 0 1 1 1 2 2 2 1 1 1
-3 -3 -3 -3 -3 -3 -3 -4 -4 -4 -4 -4 -4 -4 -4 -4 -4 -3 -2 -2 -2 -2 -2 -1 -1 -1 -1 -1 -0 -1 -1 -1 -1 -1 -0 -0 -1 -1 -2 -1 -1 -1 -1 0 1 1 1 -0 -2 -2 -3 -3 -4 -3 -2 -1 0 1 1 1 1 1 1 1 2 2 2 2 1
-3 -3 -3 -3 -3 -3 -3 -4 -4 -4 -4 -4 -4 -4 -4 -4 -4 -4 -3 -3 -2 -2 -2 -1 -1 -1 -0 -0 0 0 0 -0 -1 -1 -0 1 1 1 0 -1 -1 -1 -1 0 1 1 1 0 -1 -2 -3 -3 -4 -4 -4 -3 -2 -1 -0 0 0 0 1 1 2 3 3 3 2
-3 -3 -4 -4 -3 -4 -4 -4 -4 -4 -4 -3 -3 -3 -3 -3 -3 -3 -3 -2 -2 -2 -1 -1 -1 -1 -1 -1 -0 0 0 0 -0 -0 -0 -0 1 2 2 1 1 0 0 0 1 1 2 2 1 -0 -2 -3 -3 -4 -4 -4 -3 -2 -2 -1 -1 -0 -0 0 2 3 4 4 3
-3 -3 -3 -3 -3 -3 -4 -4 -3 -3 -3 -2 -2 -2 -2 -2 -1 -1 -1 -1 -1 -1 -0 -0 -1 -1 -1 -1 -1 -1 -1 -1 -0 -1 -1 -1 -0 1 1 2 2 2 1 1 1 1 2 3 3 2 1 -1 -2 -3 -3 -4 -4 -3 -3 -3 -2 -1 -0 -0 1 2 2 2 3
-3 -3 -3 -3 -3 -3 -3 -3 -3 -2 -2 -2 -2 -1 -1 -1 -0 -0 -0 -0 -0 0 0 0 0 -0 -0 -1 -1 -1 -2 -2 -1 -2 -2 -2 -1 -1 -0 0 1 2 2 2 1 1 1 3 4 4 4 2 -0 -2 -2 -3 -3 -3 -3 -3 -3 -2 -1 -0 0 1 0 -0 0
-3 -3 -2 -2 -2 -2 -2 -2 -2 -2 -2 -1 -1 -1 -1 -0 -0 -0 -0 -0 -0 -0 -0 -0 -0 -0 -0 -1 -2 -2 -2 -2 -2 -2 -2 -2 -2 -1 -1 -1 -1 -0 1 1 0 0 1 1 3 4 5 5 2 -1 -2 -2 -3 -3 -3 -4 -3 -2 -1 -0 0 0 -0 -1 -1
-3 -2 -2 -2 -2 -2 -2 -2 -2 -2 -1 -1 -1 -1 -1 -1 -1 -1 -1 -1 -1 -1 -1 -1 -1 -1 -1 -1 -2 -2 -2 -2 -1 -2 -2 -2 -2 -1 -1 -0 -0 -0 -0 0 -0 -0 -0 -0 1 2 3 5 3 1 -1 -2 -2 -3 -4 -4 -4 -3 -2 -1 -0 -0 -0 -1 -1
-3 -3 -3 -2 -2 -2 -2 -1 -1 -1 -1 -1 -1 -1 -1 -1 -1 -1 -1 -2 -2 -2 -2 -2 -2 -2 -2 -2 -2 -3 -3 -3 -2 -2 -2 -2 -2 -2 -1 0 0 0 0 1 -0 -1 -1 -2 -1 -1 0 2 2 1 -1 -2 -2 -3 -4 -5 -4 -4 -3 -2 -1 -0 0 0 -0
-3 -3 -3 -2 -2 -2 -2 -1 -1 -1 -1 -1 -2 -2 -2 -2 -2 -2 -3 -4 -4 -4 -4 -3 -3 -4 -4 -3 -3 -3 -3 -3 -3 -3 -3 -3 -4 -4 -3 -1 -0 0 1 1 0 -1 -2 -2 -2 -2 -2 -1 -1 -1 -1 -2 -2 -3 -4 -4 -4 -4 -3 -2 -2 -1 0 1 1
-3 -2 -2 -2 -2 -2 -2 -2 -2 -3 -3 -3 -3 -4 -4 -4 -4 -4 -4 -5 -5 -5 -5 -5 -5 -5 -5 -4 -4 -4 -3 -3 -3 -3 -4 -4 -5 -5 -5 -4 -2 -1 0 0 -0 -1 -1 -2 -2 -2 -2 -3 -3 -3 -3 -2 -2 -3 -3 -4 -4 -3 -3 -2 -2 -1 -0 1 1
-2 -3 -3 -3 -3 -4 -4 -4 -4 -4 -4 -4 -4 -4 -4 -5 -5 -5 -4 -4 -4 -4 -4 -4 -5 -5 -5 -4 -5 -5 -4 -4 -3 -3 -3 -4 -5 -5 -6 -5 -3 -1 -1 -1 -1 -2 -2 -1 -1 -1 -2 -2 -4 -4 -4 -4 -3 -3 -4 -4 -3 -2 -2 -3 -3 -2 -1 -0 0
-3 -4 -4 -4 -4 -4 -4 -4 -4 -4 -4 -4 -4 -4 -3 -3 -4 -4 -4 -4 -4 -3 -3 -3 -3 -3 -4 -3 -3 -4 -4 -4 -4 -3 -2 -3 -4 -5 -5 -5 -3 -1 0 -1 -2 -2 -2 -1 -1 -1 -1 -2 -4 -5 -5 -4 -4 -4 -4 -4 -3 -3 -3 -3 -3 -3 -3 -2 -1
-4 -4 -4 -4 -4 -4 -4 -4 -4 -4 -3 -3 -3 -3 -3 -2 -2 -2 -3 -3 -3 -3 -2 -2 -2 -2 -2 -2 -2 -2 -2 -3 -4 -3 -2 -1 -2 -4 -5 -4 -2 0 2 1 -0 -1 -1 -1 -0 -0 -1 -2 -4 -5 -5 -5 -5 -5 -5 -4 -4 -4 -3 -2 -3 -4 -4 -4 -3
-4 -4 -4 -4 -4 -3 -3 -3 -3 -3 -3 -2 -2 -2 -2 -2 -2 -1 -1 -2 -2 -2 -2 -1 -1 -1 -1 -1 -1 -1 -1 -1 -2 -2 -2 -1 -1 -2 -4 -4 -2 1 3 4 2 1 0 0 1 1 -0 -2 -4 -5 -5 -5 -6 -6 -5 -5 -5 -3 -2 -2 -3 -4 -5 -5 -4
-3 -3 -3 -3 -3 -2 -2 -2 -2 -2 -2 -2 -1 -1 -1 -1 -1 -1 -1 -1 -2 -3 -2 -1 0 0 -0 -1 -1 -1 0 1 0 -1 -2 -2 -0 -1 -3 -5 -3 1 4 5 4 3 2 1 2 2 1 -1 -4 -4 -5 -6 -7 -7 -6 -6 -5 -3 -1 -1 -3 -5 -6 -6 -4
-2 -2 -2 -2 -2 -1 -1 -1 -1 -1 -1 -1 -1 -0 0 0 -0 -0 0 0 -1 -2 -2 -2 -1 -0 0 -1 -2 -2 -1 2 2 1 -1 -2 -1 -1 -2 -5 -4 -1 3 5 5 4 3 2 3 3 2 0 -3 -4 -4 -5 -7 -7 -7 -6 -5 -4 -2 -0 -2 -4 -5 -5 -4
-1 -1 -1 -1 -1 -0 -0 0 1 1 1 0 0 0 0 1 1 1 1 1 1 -0 -1 -2 -1 -0 -0 -1 -2 -3 -2 -0 2 2 0 -2 -2 -2 -2 -4 -4 -2 1 4 5 5 5 4 4 4 3 2 -1 -3 -4 -5 -7 -8 -8 -6 -5 -4 -2 -1 -1 -3 -5 -5 -3
0 1 1 1 1 1 1 1 1 2 2 2 1 1 1 1 1 1 1 1 1 0 -1 -2 -1 -1 -0 -1 -2 -4 -4 -3 0 2 1 -1 -2 -2 -2 -3 -4 -3 -1 3 4 5 5 5 5 4 4 3 -0 -2 -3 -5 -7 -8 -7 -5 -4 -3 -3 -3 -2 -3 -4 -4 -3
Height
3092 3093 3093 3093 3094 3094 3095 3096 3096 3096 3097 3097 3097 3097 3097 3097 3097 3097 3097 3097 3097 3097 3098 3098 3098 3098 3098 3098 3099 3099 3099 3100 3100 3100 3100 3099 3099 3099 3098 3098 3097 3096 3096 3095 3094 3094 3093 3093 3092 3092 3092 3091 3091 3091 3090 3090 3090 3090 3089 3088 3088 3088 3089 3089 3089 3089 3089 3089 3090
3092 3092 3092 3093 3093 3093 3094 3094 3095 3095 3096 3096 3096 3095 3095 3095 3095 3095 3095 3095 3095 3095 3095 3096 3096 3096 3096 3097 3097 3097 3098 3098 3098 3098 3098 3098 3097 3097 3096 3096 3095 3094 3094 3093 3093 3092 3092 3091 3090 3090 3090 3089 3089 3088 3088 3088 3088 3087 3087 3087 3086 3086 3086 3087 3087 3087 3087 3088 3088
3091 3091 3092 3092 3092 3092 3093 3093 3094 3094 3094 3094 3094 3094 3093 3093 3093 3093 3093 3093 3093 3093 3093 3094 3094 3094 3094 3094 3095 3095 3095 3095 3095 3095 3095 3095 3095 3095 3094 3094 3093 3093 3092 3092 3091 3090 3090 3089 3089 3088 3088 3088 3087 3087 3086 3086 3086 3085 3084 3084 3084 3084 3084 3084 3084 3085 3086 3086 3086
3091 3091 3091 3091 3091 3092 3092 3093 3093 3093 3093 3093 3093 3093 3092 3092 3091 3091 3091 3091 3091 3091 3091 3092 3092 3092 3092 3092 3093 3093 3093 3093 3093 3093 3093 3093 3093 3092 3092 3092 3091 3091 3090 3090 3089 3089 3088 3088 3087 3087 3086 3086 3085 3085 3084 3084 3083 3083 3082 3082 3082 3082 3082 3082 3082 3083 3083 3084 3084
3090 3090 3090 3090 3090 3091 3091 3092 3092 3092 3092 3092 3092 3091 3091 3090 3090 3089 3089 3089 3089 3089 3090 3090 3090 3090 3090 3090 3090 3090 3090 3090 3090 3090 3090 3090 3090 3089 3089 3089 3089 3089 3088 3088 3088 3087 3087 3086 3086 3085 3085 3084 3084 3083 3083 3082 3082 3081 3080 3080 3080 3081 3081 3081 3081 3081 3081 3081 3082
3089 3089 3089 3089 3090 3090 3090 3091 3091 3091 3091 3091 3090 3090 3089 3089 3088 3088 3088 3088 3088 3088 3088 3088 3088 3088 3088 3088 3088 3088 3088 3088 3088 3088 3088 3087 3087 3087 3087 3087 3087 3086 3086 3086 3085 3085 3085 3084 3084 3083 3083 3083 3082 3081 3081 3080 3080 3079 3078 3078 3078 3078 3079 3079 3079 3079 3079 3079 3079
3088 3088 3088 3088 3088 3089 3089 3090 3090 3090 3090 3089 3089 3088 3087 3087 3087 3087 3087 3087 3087 3087 3087 3087 3087 3087 3087 3086 3086 3086 3086 3086 3086 3085 3085 3085 3085 3084 3084 3084 3084 3084 3083 3083 3083 3083 3082 3082 3082 3081 3081 3081 3080 3079 3079 3078 3078 3077 3077 3077 3076 3076 3076 3076 3077 3077 3077 3077 3077
3087 3087 3087 3087 3088 3088 3088 3088 3089 3089 3088 3088 3087 3086 3086 3085 3085 3085 3085 3085 3085 3085 3085 3085 3084 3084 3084 3084 3084 3084 3083 3083 3083 3083 3083 3083 3083 3082 3082 3082 3081 3081 3081 3081 3080 3080 3080 3079 3079 3079 3078 3078 3078 3078 3077 3077 3076 3075 3075 3075 3075 3074 3074 3074 3074 3075 3074 3074 3074
3086 3086 3086 3086 3087 3087 3087 3088 3088 3087 3087 3086 3085 3084 3084 3083 3083 3083 3083 3083 3083 3083 3083 3083 3083 3082 3082 3082 3082 3082 3081 3081 3081 3081 3080 3080 3080 3080 3079 3079 3079 3078 3078 3078 3078 3078 3077 3077 3076 3076 3076 3076 3075 3075 3075 3074 3074 3073 3073 3073 3073 3073 3072 3072 3072 3072 3072 3072 3071
3085 3085 3085 3086 3086 3086 3086 3086 3086 3086 3085 3084 3083 3083 3082 3082 3082 3082 3082 3082 3082 3081 3081 3081 3081 3080 3080 3080 3079 3079 3079 3078 3078 3078 3078 3078 3078 3078 3077 3077 3076 3076 3075 3075 3075 3075 3074 3074 3074 3073 3073 3073 3073 3073 3072 3072 3071 3071 3070 3070 3070 3070 3070 3070 3070 3069 3069 3069 3068
3084 3084 3084 3084 3085 3085 3085 3084 3084 3083 3083 3082 3081 3081 3080 3080 3080 3080 3080 3080 3080 3080 3079 3079 3079 3078 3078 3078 3078 3077 3077 3076 3076 3076 3075 3075 3075 3075 3074 3074 3074 3073 3073 3072 3072 3072 3071 3071 3071 3071 3070 3070 3070 3069 3069 3069 3069 3068 3068 3068 3068 3068 3067 3067 3067 3067 3067 3066 3066
3083 3083 3083 3083 3083 3083 3083 3082 3082 3081 3080 3080 3079 3079 3079 3078 3078 3078 3078 3078 3078 3078 3078 3077 3077 3077 3076 3076 3075 3075 3074 3074 3073 3073 3073 3072 3072 3072 3072 3071 3071 3071 3070 3070 3069 3068 3068 3068 3068 3068 3067 3067 3067 3067 3066 3066 3066 3065 3065 3065 3065 3065 3065 3065 3065 3064 3064 3064 3063
3081 3081 3081 3081 3081 3081 3081 3080 3079 3079 3078 3078 3077 3077 3077 3077 3077 3077 3076 3076 3076 3076 3075 3075 3075 3074 3074 3073 3073 3073 3072 3071 3071 3070 3070 3070 3069 3069 3068 3068 3068 3068 3067 3067 3066 3066 3065 3065 3064 3064 3064 3064 3064 3064 3063 3063 3063 3062 3062 3062 3062 3062 3062 3062 3062 3062 3062 3061 3061
3080 3079 3079 3079 3079 3079 3078 3078 3077 3077 3076 3076 3075 3075 3075 3075 3075 3074 3074 3074 3074 3073 3073 3073 3072 3072 3071 3071 3070 3070 3069 3069 3068 3068 3067 3067 3067 3066 3065 3065 3064 3064 3064 3063 3063 3063 3062 3062 3061 3061 3061 3060 3060 3060 3060 3060 3059 3059 3059 3059 3059 3059 3058 3058 3058 3059 3059 3058 3058
3078 3078 3078 3077 3077 3077 3076 3076 3075 3075 3074 3074 3073 3073 3073 3073 3073 3072 3072 3072 3071 3071 3070 3070 3069 3069 3068 3068 3067 3067 3066 3066 3065 3065 3064 3064 3064 3063 3063 3062 3061 3061 3060 3060 3059 3059 3059 3059 3058 3058 3058 3057 3057 3057 3056 3056 3056 3055 3055 3055 3055 3055 3055 3055 3055 3055 3055 3055 3055
3076 3076 3075 3075 3075 3074 3074 3073 3073 3073 3072 3072 3072 3071 3071 3070 3070 3070 3069 3069 3068 3068 3068 3067 3066 3066 3065 3065 3064 3063 3063 3063 3062 3062 3061 3061 3060 3060 3059 3059 3058 3058 3057 3057 3056 3055 3055 3055 3055 3055 3055 3054 3054 3053 3053 3053 3052 3052 3052 3052 3051 3051 3051 3051 3051 3051 3051 3051 3051
3073 3073 3073 3073 3073 3072 3072 3072 3071 3071 3070 3070 3069 3069 3068 3068 3068 3067 3067 3066 3066 3065 3064 3064 3063 3063 3062 3062 3061 3060 3060 3059 3059 3058 3058 3057 3057 3057 3056 3056 3055 3055 3054 3053 3053 3052 3052 3052 3052 3051 3051 3051 3050 3050 3049 3049 3048 3048 3048 3048 3048 3048 3048 3048 3047 3047 3047 3047 3047
3072 3071 3071 3071 3070 3070 3069 3069 3069 3068 3068 3068 3067 3067 3066 3066 3065 3065 3064 3063 3063 3062 3061 3061 3060 3060 3059 3058 3058 3057 3057 3056 3055 3055 3054 3054 3053 3053 3053 3052 3052 3051 3051 3050 3050 3049 3048 3048 3048 3048 3048 3047 3047 3047 3046 3046 3045 3045 3044 3044 3044 3044 3044 3044 3043 3043 3043 3043 3043
3070 3069 3069 3069 3068 3068 3067 3067 3066 3066 3065 3065 3064 3064 3063 3063 3063 3062 3061 3061 3060 3059 3058 3058 3057 3057 3056 3055 3054 3054 3053 3052 3052 3051 3051 3050 3050 3049 3049 3048 3048 3048 3047 3046 3046 3046 3045 3045 3045 3044 3044 3043 3043 3043 3043 3042 3042 3041 3041 3040 3040 3040 3040 3040 3039 3039 3039 3039 3039
3068 3068 3067 3067 3066 3066 3065 3065 3064 3063 3063 3063 3062 3062 3061 3060 3060 3059 3058 3058 3057 3057 3056 3055 3054 3053 3053 3052 3051 3050 3050 3049 3048 3048 3047 3047 3046 3045 3045 3044 3044 3043 3043 3043 3042 3042 3042 3041 3041 3041 3040 3040 3040 3039 3039 3039 3038 3038 3037 3037 3037 3036 3036 3036 3036 3035 3035 3035 3035
3066 3065 3065 3064 3064 3063 3063 3062 3062 3061 3061 3060 3059 3059 3058 3058 3057 3056 3056 3055 3054 3053 3053 3052 3051 3050 3049 3048 3048 3047 3046 3046 3045 3044 3043 3043 3042 3042 3041 3041 3040 3039 3039 3038 3038 3038 3037 3037 3037 3037 3036 3036 3036 3035 3035 3035 3034 3034 3033 3033 3033 3033 3032 3032 3032 3032 3031 3031 3031
3063 3063 3062 3062 3061 3061 3060 3060 3059 3059 3058 3057 3057 3056 3055 3055 3054 3053 3053 3052 3051 3050 3049 3048 3048 3047 3046 3045 3044 3044 3043 3043 3042 3041 3040 3039 3039 3038 3038 3037 3036 3036 3035 3035 3034 3034 3033 3033 3033 3032 3032 3032 3031 3031 3031 3031 3030 3030 3029 3029 3029 3029 3028 3028 3028 3028 3028 3027 3027
3061 3060 3060 3059 3059 3058 3058 3057 3056 3056 3055 3054 3054 3053 3052 3052 3051 3050 3049 3049 3048 3047 3046 3045 3044 3043 3043 3042 3041 3040 3040 3039 3038 3038 3037 3036 3035 3034 3034 3033 3033 3032 3031 3031 3031 3030 3029 3029 3028 3028 3028 3027 3027 3027 3027 3027 3026 3026 3025 3025 3025 3024 3024 3024 3024 3024 3023 3023 3023
3059 3058 3058 3057 3056 3056 3055 3054 3053 3053 3052 3051 3051 3050 3049 3048 3048 3047 3046 3046 3045 3044 3043 3042 3041 3040 3039 3039 3038 3037 3036 3036 3035 3034 3033 3033 3032 3031 3030 3030 3029 3028 3028 3028 3027 3027 3026 3025 3024 3024 3023 3023 3022 3022 3022 3022 3022 3022 3021 3021 3021 3020 3020 3020 3020 3020 3020 3020 3019
3056 3056 3055 3054 3053 3053 3052 3051 3051 3050 3049 3048 3048 3047 3046 3046 3045 3044 3043 3043 3042 3041 3040 3039 3038 3037 3036 3036 3035 3034 3033 3032 3031 3031 3030 3029 3029 3028 3027 3026 3025 3024 3024 3023 3023 3023 3022 3022 3021 3020 3019 3019 3018 3018 3017 3017 3017 3017 3017 3016 3016 3016 3016 3016 3016 3016 3016 3016 3016
3054 3053 3053 3052 3051 3050 3049 3049 3048 3047 3047 3046 3045 3044 3044 3043 3042 3041 3040 3040 3039 3038 3037 3036 3035 3034 3033 3033 3032 3031 3030 3029 3028 3027 3026 3026 3025 3024 3023 3023 3022 3021 3020 3019 3019 3019 3018 3018 3017 3016 3016 3015 3014 3013 3013 3013 3012 3012 3012 3012 3012 3011 3011 3011 3012 3012 3012 3012 3012
3051 3050 3050 3049 3048 3048 3047 3046 3046 3045 3044 3043 3043 3042 3041 3040 3039 3038 3038 3037 3036 3035 3034 3033 3032 3031 3030 3029 3028 3028 3027 3026 3025 3024 3023 3022 3021 3021 3020 3019 3018 3017 3017 3016 3015 3014 3014 3013 3013 3012 3012 3011 3010 3009 3009 3008 3008 3008 3007 3007 3007 3007 3007 3007 3007 3008 3008 3008 3008
3049 3048 3048 3047 3046 3046 3045 3044 3043 3043 3042 3041 3040 3040 3039 3038 3037 3036 3035 3034 3033 3032 3031 3030 3029 3028 3027 3026 3025 3024 3023 3023 3022 3021 3020 3019 3018 3017 3016 3016 3015 3014 3013 3012 3011 3010 3010 3009 3009 3008 3008 3007 3006 3005 3004 3004 3003 3003 3003 3002 3002 3002 3002 3003 3003 3003 3003 3003 3003
3047 3046 3046 3045 3044 3043 3043 3042 3041 3041 3040 3039 3038 3037 3036 3035 3034 3033 3032 3031 3030 3029 3028 3027 3026 3025 3024 3023 3022 3021 3020 3019 3018 3018 3017 3016 3015 3014 3013 3012 3011 3010 3010 3009 3008 3007 3006 3005 3004 3004 3003 3003 3002 3001 3000 3000 2999 2998 2998 2998 2998 2998 2998 2998 2998 2998 2998 2999 2999
3045 3044 3044 3043 3042 3042 3041 3040 3039 3038 3038 3037 3036 3035 3034 3033 3032 3030 3029 3028 3027 3026 3025 3024 3023 3022 3021 3020 3019 3018 3017 3016 3015 3014 3013 3012 3011 3010 3010 3009 3008 3007 3006 3005 3004 3003 3002 3001 3000 3000 2999 2998 2998 2997 2996 2995 2995 2994 2994 2993 2993 2993 2993 2993 2993 2994 2994 2994 2994
3043 3043 3042 3041 3040 3039 3038 3038 3037 3036 3035 3034 3033 3032 3031 3030 3029 3028 3026 3025 3024 3023 3022 3021 3020 3019 3018 3017 3016 3015 3014 3013 3012 3011 3010 3009 3008 3007 3006 3005 3004 3003 3003 3002 3001 2999 2998 2997 2996 2996 2995 2994 2993 2993 2992 2991 2991 2990 2989 2989 2989 2988 2988 2989 2989 2989 2989 2990 2990
3041 3040 3040 3039 3038 3037 3036 3035 3034 3033 3033 3032 3030 3029 3028 3027 3026 3025 3023 3022 3021 3020 3019 3018 3017 3016 3015 3014 3013 3012 3010 3009 3008 3007 3006 3005 3004 3003 3002 3001 3001 3000 2999 2998 2997 2996 2994 2993 2992 2992 2991 2990 2989 2988 2987 2987 2986 2986 2985 2985 2984 2984 2984 2984 2984 2984 2985 2985 2986
3039 3038 3038 3037 3036 3035 3034 3033 3032 3031 3030 3029 3028 3026 3025 3024 3023 3022 3020 3019 3018 3017 3015 3014 3013 3012 3011 3010 3009 3008 3007 3006 3005 3003 3002 3001 3000 2999 2998 2997 2997 2996 2995 2994 2993 2992 2991 2989 2988 2988 2987 2986 2985 2984 2983 2982 2982 2981 2981 2980 2980 2980 2980 2980 2980 2980 2980 2981 2981
3037 3036 3035 3034 3033 3033 3032 3030 3029 3028 3027 3026 3025 3023 3022 3021 3019 3018 3017 3016 3014 3013 3012 3011 3010 3008 3007 3006 3005 3004 3003 3002 3001 3000 2998 2997 2996 2995 2994 2993 2993 2992 2991 2990 2988 2988 2987 2985 2984 2983 2983 2982 2980 2979 2979 2978 2978 2977 2976 2976 2976 2976 2976 2976 2976 2976 2976 2976 2977
3035 3034 3033 3032 3031 3030 3029 3028 3026 3025 3024 3023 3021 3020 3019 3017 3016 3015 3013 3012 3011 3009 3008 3007 3006 3005 3003 3002 3001 3000 2998 2998 2997 2996 2994 2993 2992 2991 2989 2989 2988 2988 2987 2986 2984 2983 2983 2982 2980 2979 2978 2977 2976 2975 2975 2974 2973 2973 2972 2972 2972 2972 2972 2972 2972 2972 2972 2972 2972
3032 3031 3030 3029 3028 3027 3026 3024 3023 3022 3021 3019 3018 3017 3015 3014 3013 3011 3009 3008 3007 3006 3004 3003 3002 3001 2999 2998 2997 2996 2994 2993 2992 2991 2990 2989 2988 2986 2985 2984 2984 2984 2983 2982 2980 2979 2978 2978 2976 2975 2974 2973 2972 2971 2970 2970 2969 2968 2968 2968 2968 2968 2968 2968 2968 2968 2968 2968 2968
3029 3028 3027 3026 3025 3023 3022 3021 3020 3018 3017 3016 3014 3013 3011 3010 3009 3007 3006 3004 3003 3001 3000 2999 2998 2997 2995 2994 2993 2992 2991 2989 2988 2987 2986 2985 2984 2982 2981 2980 2980 2980 2979 2978 2977 2975 2974 2973 2972 2971 2970 2968 2967 2967 2966 2965 2965 2964 2964 2964 2963 2963 2963 2963 2963 2963 2963 2963 2964
3026 3025 3023 3022 3021 3020 3018 3017 3016 3014 3013 3012 3010 3009 3007 3006 3005 3003 3002 3000 2998 2997 2996 2995 2994 2993 2991 2990 2989 2988 2987 2986 2984 2983 2981 2980 2979 2978 2977 2975 2975 2975 2975 2974 2973 2971 2970 2969 2968 2967 2966 2964 2963 2962 2961 2961 2960 2960 2959 2959 2959 2959 2959 2959 2959 2959 2959 2959 2959
3022 3021 3020 3018 3017 3016 3015 3013 3012 3010 3009 3007 3006 3005 3003 3002 3000 2999 2998 2996 2994 2993 2991 2990 2989 2988 2987 2985 2984 2983 2982 2981 2980 2979 2977 2976 2975 2973 2972 2971 2970 2970 2970 2970 2968 2967 2966 2965 2964 2963 2961 2960 2958 2958 2957 2956 2955 2955 2955 2955 2955 2955 2955 2955 2955 2954 2954 2954 2955
3019 3018 3016 3015 3013 3012 3011 3009 3008 3006 3005 3003 3002 3000 2999 2997 2996 2994 2993 2991 2990 2988 2986 2985 2984 2983 2982 2981 2979 2978 2977 2977 2976 2975 2973 2971 2970 2969 2968 2966 2965 2965 2965 2965 2964 2963 2962 2960 2959 2958 2957 2955 2954 2953 2952 2951 2950 2950 2950 2950 2950 2950 2950 2950 2950 2950 2950 2950 2950
3016 3014 3013 3011 3009 3008 3007 3005 3003 3002 3001 2999 2997 2996 2994 2993 2991 2990 2988 2987 2985 2983 2982 2980 2979 2978 2977 2976 2974 2973 2972 2971 2971 2970 2969 2967 2966 2964 2963 2962 2961 2960 2960 2960 2960 2958 2957 2956 2955 2954 2953 2951 2949 2948 2947 2947 2946 2945 2945 2945 2946 2946 2945 2945 2945 2945 2945 2945 2946